MST,Max TemperatureF,Mean TemperatureF,Min TemperatureF,Max Dew PointF,MeanDew PointF,Min DewpointF,Max Humidity, Mean Humidity, Min Humidity, Max Sea Level PressureIn, Mean Sea Level PressureIn, Min Sea Level PressureIn, Max VisibilityMiles, Mean VisibilityMiles, Min VisibilityMiles, Max Wind SpeedMPH, Mean Wind SpeedMPH, Max Gust SpeedMPH,PrecipitationIn, CloudCover, Events, WindDirDegrees
2013-6-1,105,92,80,52,37,21,37,15,5,29.82,29.76,29.67,20,20,20,8,3,,0.00,3,,213
2013-6-2,107,94,82,46,36,23,26,12,5,29.76,29.70,29.62,20,20,20,15,6,20,0.00,1,,226
2013-6-3,104,90,75,39,30,21,24,11,6,29.82,29.76,29.69,20,20,20,12,4,20,0.00,0,,223
2013-6-4,102,88,75,37,32,27,24,12,8,29.86,29.80,29.73,20,20,20,12,5,18,0.00,1,,233
2013-6-5,104,88,73,39,29,19,25,11,5,29.88,29.81,29.71,20,20,20,12,3,,0.00,1,,194
2013-6-6,109,94,80,34,29,23,17,10,5,29.80,29.73,29.64,20,20,20,15,6,20,0.00,1,,203
2013-6-7,111,96,80,36,30,23,20,9,5,29.77,29.69,29.60,20,20,20,15,7,24,0.00,1,,184
2013-6-8,107,98,89,32,28,27,13,8,6,29.79,29.75,29.70,20,20,20,20,13,28,0.00,0,,211
2013-6-9,107,96,84,43,26,19,23,9,5,29.89,29.83,29.74,20,20,20,14,7,23,0.00,0,,205
2013-6-10,107,91,75,37,28,19,25,10,5,29.88,29.81,29.72,20,20,20,16,5,21,0.00,2,,208
2013-6-11,107,91,75,36,30,27,24,10,6,29.89,29.83,29.75,20,20,20,12,4,21,0.00,2,,209
2013-6-12,109,94,78,37,32,28,23,10,6,29.89,29.84,29.77,20,20,20,15,6,18,0.00,4,,213
2013-6-13,105,94,84,46,45,45,25,17,13,29.92,29.85,29.75,20,20,20,13,10,21,0.00,2,,223
2013-6-14,104,93,82,50,40,36,30,15,9,29.87,29.79,29.69,20,20,20,12,7,18,0.00,1,,201
2013-6-15,105,96,86,43,36,30,20,12,7,29.88,29.82,29.74,20,20,20,17,3,,0.00,3,,186
2013-6-16,105,92,80,36,26,23,20,8,5,29.92,29.86,29.79,20,20,20,15,7,21,0.00,1,,195
2013-6-17,105,92,78,34,24,18,18,8,5,29.91,29.84,29.75,20,20,20,9,4,,0.00,0,,223
2013-6-18,105,86,66,37,27,18,24,11,5,29.85,29.78,29.68,20,20,20,15,3,,0.00,1,,175
2013-6-19,105,92,78,36,25,19,20,9,5,29.78,29.72,29.65,20,20,20,12,5,23,0.00,1,,175
2013-6-20,104,91,78,34,29,23,18,10,6,29.81,29.76,29.69,20,20,20,12,3,18,0.00,0,,188
2013-6-21,105,91,77,36,26,18,17,10,5,29.85,29.79,29.70,20,20,20,15,3,21,0.00,3,,156
2013-6-22,102,90,77,36,27,21,22,10,6,29.85,29.79,29.70,20,20,20,12,6,17,0.00,4,,157
2013-6-23,104,93,82,32,25,19,16,9,5,29.80,29.73,29.63,20,20,20,17,6,,0.00,1,,125
2013-6-24,100,86,73,37,31,27,25,12,7,29.83,29.78,29.73,20,20,20,17,6,20,0.00,5,,196
2013-6-25,102,90,78,43,35,30,26,14,8,29.93,29.87,29.79,20,20,20,8,4,,0.00,1,,128
2013-6-26,104,90,75,39,32,23,23,11,8,30.00,29.94,29.87,20,20,20,9,4,,0.00,0,,159
2013-6-27,109,94,78,45,35,23,28,13,5,30.03,29.95,29.84,20,20,20,15,6,23,0.00,3,,206
2013-6-28,116,99,82,46,40,30,21,12,5,29.89,29.80,29.70,20,20,20,12,5,17,0.00,3,,172
2013-6-29,116,104,91,48,39,32,21,10,6,29.81,29.76,29.67,20,20,20,14,7,21,0.00,5,,160
2013-6-30,113,102,91,54,50,43,28,16,10,29.81,29.73,29.63,20,20,20,17,9,23,0.00,3,,223